K2NV Weather Reports


time (UTC)temp
F
wind
direction
speed
knots
gust
knots
rain 1hr
in
rain 24hr
in
rain mn
in
humidity
%
barometer
mb
20260507171916 53 40 0.9 1.7 0.00 0.00 0.00 61 1010.3
20260507171417 53 10 1.7 2.6 0.00 0.00 0.00 59 1010.2
20260507170917 53 46 1.7 2.6 0.00 0.00 0.00 58 1010.3
20260507170418 54 25 1.7 2.6 0.00 0.00 0.00 59 1010.3
20260507165917 54 355 1.7 2.6 0.00 0.00 0.00 62 1010.3
20260507165416 54 22 0.9 1.7 0.00 0.00 0.00 60 1010.4
20260507164917 54 13 2.6 2.6 0.00 0.00 0.00 59 1010.5
20260507164417 55 15 1.7 2.6 0.00 0.00 0.00 60 1010.5
20260507163917 55 341 1.7 2.6 0.00 0.00 0.00 57 1010.7
20260507163417 55 7 0.9 1.7 0.00 0.00 0.00 58 1010.7
20260507162918 55 357 0.9 1.7 0.00 0.00 0.00 57 1010.7
20260507162417 55 278 1.7 2.6 0.00 0.00 0.00 57 1010.8
20260507161916 55 256 2.6 4.3 0.00 0.00 0.00 56 1010.8
20260507160917 56 5 1.7 2.6 0.00 0.00 0.00 56 1010.9
20260507160416 56 267 4.3 5.2 0.00 0.00 0.00 56 1011.0
20260507155916 56 242 4.3 7.0 0.00 0.00 0.00 57 1011.0
20260507155417 56 250 5.2 7.0 0.00 0.00 0.00 58 1011.1
20260507154917 56 267 5.2 7.0 0.00 0.00 0.00 57 1011.0
20260507154417 56 276 2.6 5.2 0.00 0.00 0.00 55 1011.0
20260507153917 56 280 4.3 6.1 0.00 0.00 0.00 61 1011.1
20260507153418 56 271 2.6 5.2 0.00 0.00 0.00 62 1011.1
20260507152917 56 250 2.6 5.2 0.00 0.00 0.00 63 1011.2
20260507152418 55 256 2.6 5.2 0.00 0.00 0.00 61 1011.3
20260507151918 54 267 2.6 4.3 0.00 0.00 0.00 61 1011.2
20260507151418 54 335 1.7 2.6 0.00 0.00 0.00 62 1011.3
20260507150916 54 258 2.6 4.3 0.00 0.00 0.00 61 1011.4
20260507150416 54 148 0.9 2.6 0.00 0.00 0.00 64 1011.4
20260507145917 53 225 2.6 5.2 0.00 0.00 0.00 65 1011.4
20260507145417 53 297 0.9 1.7 0.00 0.00 0.00 62 1011.4
20260507144918 53 235 1.7 4.3 0.00 0.01 0.00 62 1011.4
20260507144418 53 166 0.9 0.9 0.00 0.01 0.00 63 1011.4
20260507143917 52 304 0.9 1.7 0.00 0.01 0.00 67 1011.5
20260507143417 52 237 1.7 2.6 0.00 0.01 0.00 66 1011.6
20260507142916 51 199 2.6 6.1 0.00 0.01 0.00 66 1011.5
20260507142415 51 211 2.6 4.3 0.00 0.01 0.00 66 1011.5
20260507141921 51 197 5.2 7.8 0.00 0.01 0.00 65 1011.6
20260507141417 51 220 4.3 5.2 0.00 0.01 0.00 66 1011.6
20260507140917 51 189 1.7 2.6 0.00 0.01 0.00 68 1011.7
20260507140417 50 199 2.6 2.6 0.00 0.01 0.00 67 1011.7
20260507135917 50 229 1.7 4.3 0.00 0.01 0.00 69 1011.8
20260507135417 50 230 1.7 2.6 0.00 0.01 0.00 66 1011.8
20260507134920 49 259 1.7 2.6 0.00 0.01 0.00 68 1011.9
20260507134418 48 222 2.6 4.3 0.00 0.01 0.00 67 1011.9
20260507133915 48 225 2.6 2.6 0.00 0.01 0.00 70 1011.9
20260507133416 47 230 4.3 6.1 0.00 0.01 0.00 72 1012.0
20260507132918 47 206 2.6 4.3 0.00 0.01 0.00 72 1012.0
20260507132417 47 198 1.7 7.0 0.00 0.01 0.00 70 1011.9
20260507131916 46 205 0.9 2.6 0.00 0.01 0.00 71 1011.9
20260507131418 46 124 1.7 2.6 0.00 0.01 0.00 74 1011.9
20260507130917 45 125 0.9 2.6 0.00 0.01 0.00 73 1011.9
20260507130417 44 166 0.0 1.7 0.00 0.01 0.00 75 1011.9
20260507125916 44 174 2.6 2.6 0.00 0.01 0.00 77 1011.9
20260507124916 43 182 0.0 0.9 0.00 0.01 0.00 78 1012.0
20260507123917 42 110 0.9 2.6 0.00 0.01 0.00 79 1012.1
20260507123418 42 98 0.9 2.6 0.00 0.01 0.00 82 1012.1
20260507122917 41 61 0.9 1.7 0.00 0.01 0.00 85 1012.1
20260507122418 41 245 0.9 1.7 0.00 0.01 0.00 86 1012.0
20260507121416 40 97 0.9 1.7 0.00 0.02 0.00 87 1012.0
20260507120917 40 97 0.0 0.9 0.00 0.02 0.00 88 1012.0
20260507120417 40 97 0.0 0.9 0.00 0.02 0.00 88 1012.1
20260507115918 40 97 0.9 0.9 0.00 0.02 0.00 89 1012.0
20260507115415 40 97 0.0 0.0 0.00 0.02 0.00 89 1012.1
20260507114917 39 97 0.9 2.6 0.00 0.02 0.00 90 1012.1
20260507114417 39 97 0.9 1.7 0.00 0.02 0.00 90 1012.0
20260507113918 39 14 0.0 0.0 0.00 0.02 0.00 91 1012.1
20260507113417 39 14 0.9 1.7 0.00 0.02 0.00 91 1012.3
20260507112918 39 14 0.9 1.7 0.00 0.02 0.00 92 1012.3
20260507112418 39 37 1.7 2.6 0.00 0.02 0.00 91 1012.4
20260507111917 39 18 1.7 2.6 0.00 0.02 0.00 91 1012.4
20260507111416 39 8 1.7 2.6 0.00 0.02 0.00 92 1012.4
20260507110917 39 336 1.7 2.6 0.00 0.02 0.00 92 1012.5
20260507110417 39 5 0.0 0.0 0.00 0.02 0.00 92 1012.4
20260507105917 39 5 0.0 0.0 0.00 0.02 0.00 92 1012.2
20260507105417 39 5 0.9 0.9 0.00 0.03 0.00 92 1012.1
20260507104915 39 5 0.9 0.9 0.00 0.03 0.00 92 1012.0
20260507104417 39 29 0.9 2.6 0.00 0.03 0.00 92 1011.8
20260507103916 40 157 0.0 0.0 0.00 0.03 0.00 92 1011.7
20260507103416 40 157 0.0 0.0 0.00 0.03 0.00 92 1011.6
20260507102918 40 157 0.0 0.0 0.00 0.03 0.00 92 1011.6
20260507102415 40 157 0.0 0.0 0.00 0.03 0.00 92 1011.4
20260507101918 40 157 0.0 0.0 0.00 0.03 0.00 92 1011.4
20260507101417 40 157 0.0 0.0 0.00 0.03 0.00 92 1011.4
20260507100916 40 157 0.0 0.0 0.00 0.03 0.00 92 1011.3
20260507100417 40 157 0.0 0.9 0.00 0.03 0.00 92 1011.3
20260507095917 40 157 0.9 1.7 0.00 0.03 0.00 92 1011.3
20260507095418 40 96 0.9 1.7 0.00 0.03 0.00 92 1011.2
20260507094917 40 9 0.9 2.6 0.00 0.04 0.00 93 1011.3
20260507094416 40 9 0.0 2.6 0.00 0.04 0.00 92 1011.5
20260507093918 39 9 0.0 0.0 0.00 0.04 0.00 92 1011.4
20260507093417 39 9 0.0 0.0 0.00 0.04 0.00 92 1011.4
20260507092916 39 9 0.0 0.0 0.00 0.04 0.00 93 1011.5
20260507092418 39 9 0.0 0.0 0.00 0.04 0.00 92 1011.5
20260507091917 39 9 0.0 0.9 0.00 0.04 0.00 92 1011.5
20260507091416 39 9 0.0 0.9 0.00 0.05 0.00 92 1011.5
20260507090918 39 9 0.0 0.0 0.00 0.05 0.00 92 1011.5
20260507090417 39 9 0.0 0.0 0.00 0.05 0.00 92 1011.4
20260507085916 39 9 0.0 0.0 0.00 0.05 0.00 91 1011.4
20260507085418 39 9 0.9 0.9 0.00 0.05 0.00 91 1011.4
20260507084917 39 9 0.9 0.9 0.00 0.05 0.00 91 1011.3
20260507084417 39 9 0.0 0.9 0.00 0.06 0.00 91 1011.3
20260507083918 39 11 1.7 2.6 0.00 0.06 0.00 92 1011.3
20260507083416 39 215 0.0 0.0 0.00 0.06 0.00 92 1011.3
20260507082916 39 215 0.0 0.0 0.00 0.06 0.00 92 1011.4
20260507082416 39 215 0.0 0.0 0.00 0.06 0.00 92 1011.5
20260507081918 39 215 0.0 0.0 0.00 0.06 0.00 91 1011.4
20260507081417 39 215 0.0 0.0 0.00 0.06 0.00 91 1011.5
20260507080918 39 215 0.0 0.0 0.00 0.07 0.00 91 1011.5
20260507080417 39 215 0.0 0.0 0.00 0.07 0.00 91 1011.5
20260507075916 40 215 0.0 0.0 0.00 0.07 0.00 91 1011.4
20260507075416 40 215 0.0 0.0 0.00 0.07 0.00 91 1011.4
20260507074918 40 215 0.0 0.0 0.00 0.07 0.00 91 1011.3
20260507074417 40 215 0.0 0.0 0.00 0.07 0.00 91 1011.3
20260507073916 40 215 0.0 0.0 0.00 0.08 0.00 91 1011.3
20260507073416 40 215 0.0 0.0 0.00 0.08 0.00 91 1011.3
20260507072917 41 215 0.0 0.0 0.00 0.08 0.00 91 1011.3
20260507072416 41 215 0.0 0.0 0.00 0.08 0.00 91 1011.3
20260507071917 41 215 0.0 0.0 0.00 0.08 0.00 92 1011.3
20260507071417 41 215 0.0 0.0 0.00 0.08 0.00 92 1011.3
20260507070918 41 215 0.0 0.0 0.00 0.08 0.00 91 1011.4
20260507070417 41 215 0.0 0.0 0.00 0.09 0.00 91 1011.4
20260507065917 41 215 0.0 0.0 0.00 0.09 0.00 91 1011.3
20260507065419 41 215 0.0 0.0 0.00 0.09 0.00 91 1011.3
20260507064418 41 215 0.0 0.0 0.00 0.09 0.00 91 1011.3
20260507063917 41 215 0.0 0.0 0.00 0.09 0.00 91 1011.3
20260507063416 41 215 0.0 0.0 0.00 0.10 0.00 91 1011.4
20260507062918 42 215 0.0 0.0 0.00 0.10 0.00 91 1011.5
20260507062417 42 215 0.0 0.0 0.00 0.10 0.00 90 1011.6
20260507061917 42 215 0.0 0.0 0.00 0.10 0.00 91 1011.7
20260507061416 42 215 0.0 0.0 0.00 0.10 0.00 91 1011.7
20260507060918 42 223 0.9 0.9 0.00 0.10 0.00 91 1011.8
20260507060417 42 223 0.9 1.7 0.00 0.10 0.00 91 1011.8
20260507055917 42 223 0.0 2.6 0.00 0.10 0.00 91 1012.0
20260507055417 42 222 0.0 0.0 0.00 0.11 0.00 90 1011.9
20260507054917 42 222 0.0 0.0 0.00 0.11 0.00 90 1011.8
20260507054418 42 222 0.0 0.0 0.00 0.11 0.00 90 1011.8
20260507053916 42 222 0.0 0.0 0.00 0.11 0.00 91 1011.9
20260507053418 43 222 0.0 0.0 0.00 0.11 0.00 90 1012.0
20260507052917 43 222 0.0 0.0 0.00 0.11 0.00 90 1012.0
20260507052415 43 222 0.0 0.0 0.00 0.11 0.00 90 1012.0
20260507051917 43 222 0.0 0.0 0.00 0.11 0.00 90 1012.0
20260507051416 43 222 0.0 0.0 0.00 0.12 0.00 90 1012.0
20260507050916 43 222 0.0 0.9 0.00 0.12 0.00 90 1012.0
20260507050417 43 222 0.0 0.9 0.00 0.12 0.00 90 1012.1
20260507045916 43 222 0.0 0.0 0.00 0.13 0.00 90 1012.1
20260507045417 43 222 0.9 0.9 0.00 0.13 0.00 90 1012.1
20260507044916 43 252 0.9 1.7 0.00 0.13 0.00 90 1012.2
20260507044418 44 247 1.7 2.6 0.00 0.14 0.00 90 1012.3
20260507043918 44 249 1.7 2.6 0.00 0.14 0.00 90 1012.3
20260507043417 44 245 1.7 4.3 0.00 0.14 0.00 90 1012.2
20260507042918 44 255 2.6 4.3 0.00 0.14 0.00 90 1012.3
20260507042417 44 244 4.3 4.3 0.00 0.15 0.00 90 1012.3
20260507041917 44 244 2.6 5.2 0.00 0.15 0.00 90 1012.3
20260507041416 44 240 2.6 4.3 0.00 0.15 0.00 90 1012.2
20260507040916 44 245 2.6 4.3 0.00 0.15 0.00 90 1012.3
20260507040417 44 249 1.7 1.7 0.00 0.15 0.00 90 1012.2
20260507035916 44 255 1.7 2.6 0.00 0.15 0.15 90 1012.1
20260507035417 44 239 0.9 1.7 0.00 0.15 0.15 89 1012.0
20260507034918 44 242 2.6 2.6 0.00 0.15 0.15 89 1012.1
20260507034417 44 244 1.7 4.3 0.00 0.15 0.15 89 1012.2
20260507033920 44 238 0.9 2.6 0.00 0.15 0.15 89 1012.2
20260507033416 44 247 1.7 2.6 0.00 0.15 0.15 89 1012.2
20260507032917 44 231 0.9 2.6 0.00 0.15 0.15 89 1012.2
20260507032417 44 241 0.9 1.7 0.00 0.15 0.15 89 1012.2
20260507031917 44 232 1.7 2.6 0.00 0.15 0.15 89 1012.2
20260507031418 44 219 1.7 2.6 0.00 0.15 0.15 89 1012.2
20260507030917 44 233 0.9 2.6 0.00 0.15 0.15 89 1012.1
20260507030417 44 236 0.9 1.7 0.00 0.15 0.15 89 1012.2
20260507025916 44 226 1.7 2.6 0.00 0.15 0.15 89 1012.2
20260507025416 44 225 0.9 2.6 0.00 0.15 0.15 89 1012.2
20260507024917 44 231 1.7 2.6 0.00 0.16 0.15 89 1012.2
20260507024417 44 241 0.9 1.7 0.00 0.16 0.15 89 1012.0
20260507023917 44 233 1.7 2.6 0.00 0.16 0.15 89 1011.9
20260507023417 44 226 1.7 2.6 0.00 0.16 0.15 89 1012.0
20260507022918 44 184 0.0 0.0 0.00 0.16 0.15 89 1012.0
20260507022417 44 184 0.9 1.7 0.00 0.17 0.15 88 1011.9
20260507021918 44 230 0.0 0.9 0.00 0.17 0.15 88 1012.0
20260507021417 44 230 0.0 0.0 0.00 0.17 0.15 88 1012.0
20260507020916 44 230 0.9 0.9 0.00 0.17 0.15 88 1012.0
20260507020417 44 235 0.9 0.9 0.00 0.18 0.15 88 1012.1
20260507015918 44 241 0.9 0.9 0.00 0.18 0.15 88 1012.3
20260507015418 44 241 0.9 1.7 0.00 0.18 0.15 88 1012.4
20260507014917 44 235 0.9 2.6 0.00 0.18 0.15 88 1012.5
20260507014417 44 232 1.7 2.6 0.00 0.18 0.15 88 1012.6
20260507013916 44 257 1.7 2.6 0.00 0.18 0.15 88 1012.6
20260507013418 44 234 0.0 0.0 0.00 0.19 0.15 88 1012.5
20260507012918 44 234 0.0 0.0 0.00 0.19 0.15 88 1012.4
20260507012416 44 234 0.9 1.7 0.00 0.19 0.15 88 1012.4
20260507011917 44 239 0.0 1.7 0.00 0.19 0.15 88 1012.3
20260507011418 44 244 1.7 2.6 0.00 0.19 0.15 88 1012.2
20260507010917 44 239 1.7 2.6 0.00 0.19 0.15 88 1012.2
20260507010416 44 24 0.0 0.0 0.00 0.20 0.15 88 1012.2
20260507005917 44 24 0.0 0.0 0.00 0.20 0.15 87 1012.0
20260507005418 44 24 0.0 0.0 0.00 0.20 0.15 87 1012.0
20260507004917 44 24 0.0 0.0 0.00 0.21 0.15 87 1011.9
20260507004417 44 24 0.0 0.0 0.00 0.21 0.15 87 1011.9
20260507003918 44 24 0.0 0.0 0.00 0.21 0.15 87 1011.8
20260507003416 44 24 0.0 0.0 0.00 0.22 0.15 87 1011.8
20260507002919 44 24 0.0 0.0 0.00 0.22 0.15 87 1011.7
20260507002415 44 24 0.0 0.0 0.00 0.23 0.15 87 1011.6
20260507001918 44 24 0.0 0.9 0.00 0.23 0.15 86 1011.4
20260507001415 44 24 0.0 0.0 0.00 0.24 0.15 86 1011.5
20260507000916 44 24 0.0 0.0 0.00 0.25 0.15 86 1011.3
20260507000416 44 24 0.0 0.0 0.00 0.26 0.15 86 1011.3
20260506235916 44 24 0.0 0.0 0.00 0.27 0.15 86 1011.3
20260506235415 44 24 0.0 0.0 0.00 0.28 0.15 86 1011.3
20260506234916 44 24 0.0 0.9 0.00 0.29 0.15 85 1011.3
20260506234417 44 24 0.9 0.9 0.00 0.30 0.15 86 1011.2
20260506233917 44 353 0.0 0.0 0.00 0.31 0.15 85 1011.2
20260506233415 44 20 0.9 1.7 0.00 0.33 0.15 85 1011.2
20260506232916 45 105 0.0 0.9 0.00 0.34 0.15 85 1011.2
20260506232415 45 105 0.0 1.7 0.00 0.34 0.15 85 1011.1
20260506231916 45 6 0.0 0.9 0.00 0.35 0.15 86 1011.2
20260506231415 45 14 1.7 2.6 0.00 0.36 0.15 87 1011.1
20260506230916 45 8 0.0 0.9 0.00 0.36 0.15 87 1011.1
20260506230415 45 26 1.7 2.6 0.00 0.37 0.15 87 1011.2
20260506225917 44 3 1.7 2.6 0.00 0.37 0.15 87 1011.1
20260506225418 44 354 0.0 0.0 0.00 0.38 0.15 88 1011.0
20260506224915 44 354 0.0 0.9 0.00 0.38 0.15 88 1010.9
20260506224418 44 354 0.0 1.7 0.00 0.39 0.15 89 1010.9
20260506223916 44 11 0.9 1.7 0.00 0.39 0.15 89 1010.8
20260506223416 44 20 0.9 2.6 0.00 0.40 0.15 89 1010.8
20260506222915 44 6 1.7 2.6 0.00 0.41 0.15 89 1010.8
20260506222420 44 349 1.7 2.6 0.00 0.41 0.15 89
20260506222416 44 349 1.7 2.6 0.00 0.41 0.15 89 1010.6
20260506221915 44 12 1.7 2.6 0.00 0.42 0.15 90 1010.5
20260506221416 44 356 1.7 2.6 0.00 0.42 0.15 90 1010.5
20260506220916 44 14 1.7 4.3 0.00 0.43 0.15 90 1010.3
20260506220416 44 8 1.7 2.6 0.00 0.45 0.15 90 1010.3
20260506220130 44 23 0.9 2.6 0.00 0.46 0.15 90 1010.3
20260506215917 44 23 0.9 2.6 0.00 0.46 0.15 90 1010.3
20260506215415 44 12 1.7 2.6 0.00 0.47 0.15 90 1010.3
20260506214917 44 1 1.7 7.8 0.00 0.48 0.15 90 1010.3
20260506214416 43 6 2.6 4.3 0.00 0.49 0.15 90 1010.2
20260506213915 43 24 2.6 4.3 0.00 0.50 0.15 90 1010.3
20260506213416 43 24 2.6 2.6 0.00 0.51 0.15 90 1010.3
20260506212916 43 13 2.6 2.6 0.00 0.52 0.15 90 1010.2
20260506212416 43 21 2.6 2.6 0.00 0.53 0.15 90 1010.2
20260506211915 43 18 1.7 7.0 0.00 0.54 0.15 90 1010.1
20260506211416 43 22 1.7 4.3 0.00 0.54 0.15 91 1010.0
20260506210915 43 336 2.6 2.6 0.00 0.55 0.15 91 1010.0
20260506210417 43 2 1.7 2.6 0.00 0.56 0.15 90 1009.9
20260506205915 43 342 2.6 5.2 0.00 0.57 0.15 90 1009.8
20260506205417 43 351 2.6 4.3 0.00 0.60 0.15 90 1009.8
20260506204916 43 337 4.3 7.0 0.00 0.62 0.15 90 1009.9
20260506204417 43 3 4.3 6.1 0.00 0.63 0.15 90 1009.8
20260506203916 43 347 4.3 5.2 0.00 0.64 0.15 89 1009.8
20260506203417 43 326 6.1 11.3 0.00 0.65 0.15 89 1009.7
20260506202916 43 329 6.1 8.7 0.00 0.66 0.15 89 1009.8
20260506202417 43 315 7.8 10.4 0.00 0.66 0.15 88 1009.8
20260506201916 44 338 7.0 10.4 0.00 0.66 0.15 88 1009.7
20260506201415 44 317 7.8 11.3 0.00 0.66 0.15 87 1009.5
20260506200916 45 327 6.1 7.8 0.00 0.66 0.15 85 1009.4
20260506200415 46 319 7.8 10.4 0.00 0.66 0.15 84 1009.4
20260506195915 47 311 7.8 12.2 0.00 0.66 0.15 82 1009.3
20260506195415 49 311 8.7 12.2 0.00 0.66 0.15 80 1009.4
20260506194917 51 305 8.7 13.0 0.00 0.66 0.15 80 1009.2
20260506194416 51 249 7.8 18.2 0.00 0.66 0.15 80 1008.8
20260506193917 51 239 7.0 12.2 0.00 0.66 0.15 80 1008.6
20260506193416 52 244 5.2 11.3 0.00 0.66 0.15 80 1008.5
20260506192917 52 226 6.1 10.4 0.00 0.66 0.15 80 1008.5
20260506192417 52 249 4.3 7.8 0.00 0.66 0.15 83 1008.6
20260506191916 52 221 1.7 4.3 0.00 0.66 0.15 83 1008.5
20260506191416 52 210 4.3 6.1 0.00 0.66 0.15 84 1008.5
20260506190918 51 223 4.3 7.0 0.00 0.66 0.15 85 1008.5
20260506190420 51 249 6.1 10.4 0.00 0.66 0.15 85 1008.6
20260506185918 51 242 5.2 7.8 0.00 0.66 0.15 86 1008.6
20260506185417 51 264 2.6 2.6 0.00 0.66 0.15 87 1008.6
20260506184918 50 232 1.7 2.6 0.00 0.66 0.15 87 1008.5
20260506184417 50 213 0.9 0.9 0.00 0.66 0.15 86 1008.4
20260506183915 50 213 0.9 1.7 0.00 0.66 0.15 86 1008.6
20260506183417 50 224 0.9 2.6 0.00 0.66 0.15 86 1008.5
20260506182917 50 251 0.9 2.6 0.00 0.66 0.15 85 1008.5
20260506182418 50 251 0.0 0.9 0.00 0.66 0.15 85 1008.4
20260506181917 50 251 0.9 0.9 0.00 0.66 0.15 86 1008.4
20260506181416 50 251 0.0 0.0 0.00 0.66 0.15 85 1008.4
20260506180917 50 251 0.0 0.0 0.00 0.66 0.15 85 1008.5
20260506180417 50 251 1.7 2.6 0.00 0.66 0.15 85 1008.5
20260506175916 50 251 0.9 1.7 0.00 0.66 0.15 85 1008.4
20260506175417 51 244 2.6 4.3 0.00 0.66 0.15 87 1008.6
20260506174918 50 255 0.0 0.9 0.00 0.66 0.15 87 1008.4
20260506174417 50 254 1.7 2.6 0.00 0.66 0.15 87 1008.6
20260506173916 50 299 0.0 0.9 0.00 0.66 0.15 86 1008.3
20260506173418 50 299 0.0 0.9 0.00 0.66 0.15 86 1008.5
20260506172918 50 299 0.0 0.9 0.00 0.66 0.15 87 1008.7
20260506172417 50 299 0.0 0.0 0.00 0.66 0.15 88 1008.6